Location: Indian Springs
(36.5700°N, 115.6700°W)
Time: 18:56:34
(UTC-07:00)

Amateur Radio Satellites - All Passes

Search period start: 25 September 2016 18:26
Search period end: 26 September 2016 18:26
Location: Indian Springs, 36.5700°N, 115.6700°W

Satellite Date Start Highest point End Downlink Frequencies (MHz)
Time Altitude Azimuth
CUSAT 1 25 Sep 18:28:12 18:32:46 24° 83° (E) 18:38:08 437.405
STARS 25 Sep 18:29:45 18:32:22 16° 294° (WNW) 18:34:57 437.465
LilacSat-2 25 Sep 18:37:56 18:41:30 42° 261° (W) 18:45:06 437.200
CUTE 1.7 + AOD 2 25 Sep 18:40:59 18:42:34 12° 65° (ENE) 18:44:10 437.475
CANX-2 25 Sep 18:41:01 18:43:14 14° 66° (ENE) 18:45:27 2200.000
NOAA 15 25 Sep 18:44:31 18:49:28 40° 261° (W) 18:54:27 137.62
BRITE-PL 25 Sep 18:45:13 18:49:29 22° 267° (W) 18:53:45 437.365/2234.400
GOMX 1 25 Sep 18:46:31 18:51:40 42° 262° (W) 18:56:41 467.674
HO-68 25 Sep 18:46:50 18:52:59 32° 64° (ENE) 18:59:06 435.675
Cubesat XI-IV 25 Sep 18:51:30 18:56:31 43° 261° (W) 19:01:35 437.490
CUTE-I 25 Sep 18:52:31 18:57:31 42° 261° (W) 19:02:32 437.470
Cosmos 2499 25 Sep 18:57:05 19:02:15 19° 70° (ENE) 19:07:37 435.465 / 435.565
NOAA 18 25 Sep 19:12:31 19:17:27 34° 262° (W) 19:22:24 137.9125
CINEMA 3 25 Sep 19:14:28 19:18:47 43° 74° (ENE) 19:22:57 145.822/145.860
AAUSAT CUBESAT 2 25 Sep 19:17:36 19:18:41 11° 65° (ENE) 19:19:48 437.432
DOVE 4 25 Sep 19:21:04 19:25:52 40° 261° (W) 19:30:30 437.250
GONETS M04 25 Sep 19:21:28 19:29:28 37° 74° (ENE) 19:37:23
DANDE 25 Sep 19:34:59 19:38:59 28° 85° (E) 19:44:01 436.750
STRAND 1 25 Sep 19:55:32 20:00:41 68° 102° (ESE) 20:05:48 437.568
COMPASS 1 25 Sep 19:56:10 20:00:05 40° 73° (ENE) 20:04:01 437.405
ZACube-1 25 Sep 20:02:47 20:05:01 14° 67° (ENE) 20:07:16 437.345
Oscar 11 25 Sep 20:05:08 20:07:44 16° 67° (ENE) 20:10:21 145.826/435.025
CUSAT 1 25 Sep 20:08:29 20:14:05 50° 285° (WNW) 20:21:07 437.405
ISS 25 Sep 20:11:32 20:14:15 25° 131° (SE) 20:17:00 145.825
CUTE 1.7 + AOD 2 25 Sep 20:13:48 20:17:54 52° 260° (W) 20:22:04 437.475
CANX-2 25 Sep 20:14:39 20:18:40 43° 261° (W) 20:22:44 2200.000
SEEDS 25 Sep 20:19:45 20:23:54 66° 259° (WSW) 20:28:07 437.485
RS-15 25 Sep 20:26:45 20:38:15 84° 117° (ESE) 20:50:26 29.354- 29.394
AO-85 25 Sep 20:27:32 20:31:21 20° 110° (ESE) 20:35:03 145.980
HO-68 25 Sep 20:33:37 20:40:25 46° 260° (W) 20:47:15 435.675
CUBEBUG 2 25 Sep 20:38:35 20:42:50 80° 258° (WSW) 20:47:01 437.445
PRISM 25 Sep 20:47:17 20:50:16 19° 95° (E) 20:53:12 437.425
Cosmos 2499 25 Sep 20:48:24 20:55:55 73° 266° (W) 21:04:02 435.465 / 435.565
AAUSAT CUBESAT 2 25 Sep 20:49:34 20:53:38 56° 260° (W) 20:57:45 437.432
JUGNU 25 Sep 20:53:12 20:54:32 11° 168° (SSE) 20:55:53 437.505
CINEMA 3 25 Sep 20:53:30 20:56:03 15° 266° (W) 20:58:34 145.822/145.860
FUNcube-1 25 Sep 20:56:11 21:00:14 57° 75° (ENE) 21:04:18 145.935
DELFI C3 25 Sep 20:56:18 20:59:23 22° 70° (ENE) 21:02:28 145.870
UWE-3 25 Sep 21:01:55 21:06:05 65° 260° (W) 21:10:13 435.000/436.395/437.385
DANDE 25 Sep 21:17:23 21:21:36 29° 291° (WNW) 21:26:58 436.750
GONETS M04 25 Sep 21:18:10 21:26:17 44° 272° (W) 21:34:21
COMPASS 1 25 Sep 21:33:40 21:35:48 14° 268° (W) 21:37:56 437.405
STRAND 1 25 Sep 21:36:45 21:39:14 14° 297° (WNW) 21:41:44 437.568
ZACube-1 25 Sep 21:37:03 21:40:57 39° 261° (W) 21:44:52 437.345
Oscar 11 25 Sep 21:39:29 21:43:30 39° 262° (W) 21:47:35 145.826/435.025
ISS 25 Sep 21:47:47 21:50:39 28° 327° (NNW) 21:53:34 145.825
UNISAT 6 25 Sep 22:05:28 22:08:40 19° 95° (E) 22:11:54 437.425
AO-85 25 Sep 22:06:30 22:11:33 47° 304° (WNW) 22:16:19 145.980
HUMSAT D 25 Sep 22:17:54 22:21:57 78° 258° (WSW) 22:26:03 437.325/437.525
ESTCUBE 1 25 Sep 22:21:31 22:24:27 17° 67° (ENE) 22:27:24 437.505/2401.250
PRISM 25 Sep 22:21:59 22:25:33 29° 290° (WNW) 22:29:06 437.425
DELFI C3 25 Sep 22:30:50 22:34:04 24° 264° (W) 22:37:20 145.870
VELOX 1 25 Sep 22:33:01 22:33:59 11° 63° (ENE) 22:34:57 145.980
JUGNU 25 Sep 22:39:32 22:42:44 15° 178° (S) 22:45:54 437.505
ANTELSAT 25 Sep 22:40:05 22:44:22 48° 100° (E) 22:48:43 437.575/2403.000
CUBEBUG 1 25 Sep 22:41:13 22:44:08 17° 67° (ENE) 22:47:02 437.445
RS-15 25 Sep 22:42:10 22:52:16 32° 322° (NW) 23:02:49 29.354- 29.394
TIGRISAT 25 Sep 23:01:12 23:05:35 81° 101° (E) 23:10:05 435.000
QB50P2 25 Sep 23:06:38 23:07:46 11° 92° (E) 23:08:54 145.880/145.840
50 SAT 25 Sep 23:07:21 23:10:05 20° 70° (ENE) 23:12:50 437.505
POLYITAN 1 25 Sep 23:08:51 23:10:00 11° 92° (E) 23:11:10 437.675
AUBIESAT-1 25 Sep 23:21:13 23:24:56 32° 68° (ENE) 23:28:25 437.475
SO-50 25 Sep 23:21:52 23:23:15 11° 42° (NE) 23:24:37 436.795
AISAT 25 Sep 23:21:53 23:26:02 40° 72° (ENE) 23:30:12 437.250
SPROUT 25 Sep 23:32:16 23:35:46 25° 70° (ENE) 23:39:16 437.525
SRMSAT 25 Sep 23:32:47 23:34:48 12° 169° (S) 23:36:50 437.500
UKube-1 25 Sep 23:41:28 23:45:13 30° 70° (ENE) 23:48:59 .
UNISAT 6 25 Sep 23:41:28 23:45:24 33° 288° (WNW) 23:49:24 437.425
JAS-2 25 Sep 23:42:18 23:49:10 32° 94° (E) 23:55:41 435.910
QB50P1 25 Sep 23:47:28 23:51:15 32° 98° (E) 23:55:03 145.935-145.965
DUCHIFAT 1 25 Sep 23:48:01 23:51:39 28° 97° (E) 23:55:17 145.980
M-CUBED/EXP-1 PRIME 25 Sep 23:55:56 00:00:14 74° 254° (WSW) 00:04:13 437.505
ESTCUBE 1 25 Sep 23:56:39 00:00:54 40° 261° (W) 00:05:12 437.505/2401.250
POPSAT HIP 1 26 Sep 00:00:33 00:04:37 46° 99° (E) 00:08:40 437.405
BUGSAT 1 26 Sep 00:00:56 00:03:12 15° 94° (E) 00:05:29 437.445
DX 1 26 Sep 00:04:59 00:09:21 75° 76° (ENE) 00:13:44 434.975-435.025
VELOX 1 26 Sep 00:05:25 00:09:50 67° 258° (WSW) 00:14:17 145.980
BEESAT 3 26 Sep 00:13:37 00:14:47 11° 108° (ESE) 00:15:57 437.485
CUBEBUG 1 26 Sep 00:15:57 00:20:05 38° 262° (W) 00:24:13 437.445
ANTELSAT 26 Sep 00:18:21 00:20:40 14° 294° (WNW) 00:23:01 437.575/2403.000
NANOSAT C BR1 26 Sep 00:18:23 00:22:36 75° 103° (ESE) 00:26:46 145.865
JUGNU 26 Sep 00:28:24 00:30:55 13° 188° (S) 00:33:24 437.505
QB50P2 26 Sep 00:39:44 00:43:50 52° 286° (WNW) 00:47:56 145.880/145.840
50 SAT 26 Sep 00:40:44 00:43:28 20° 264° (W) 00:46:14 437.505
POLYITAN 1 26 Sep 00:41:58 00:46:04 51° 286° (WNW) 00:50:10 437.675
AUBIESAT-1 26 Sep 00:56:30 00:59:21 18° 259° (W) 01:02:06 437.475
SO-50 26 Sep 00:59:51 01:04:25 88° 60° (ENE) 01:08:52 436.795
AISAT 26 Sep 00:59:53 01:02:38 16° 266° (W) 01:05:24 437.250
TISAT 1 26 Sep 01:00:04 01:04:07 49° 74° (ENE) 01:08:10 437.305
BEESAT 2 26 Sep 01:02:31 01:05:28 21° 111° (ESE) 01:08:27 435.950
RS-15 26 Sep 01:03:54 01:10:39 16° 357° (N) 01:17:28 29.354- 29.394
Cosmos 2491 26 Sep 01:04:29 01:11:22 24° 69° (ENE) 01:18:10 435.465 / 435.565
SPROUT 26 Sep 01:08:10 01:11:36 23° 264° (W) 01:15:03 437.525
UKube-1 26 Sep 01:18:00 01:21:14 21° 265° (W) 01:24:30 .
SRMSAT 26 Sep 01:19:54 01:23:09 15° 180° (S) 01:26:24 437.500
Oscar 19 26 Sep 01:20:21 01:24:31 24° 95° (E) 01:28:39 437.125/150
QB50P1 26 Sep 01:23:55 01:26:46 18° 292° (WNW) 01:29:38 145.935-145.965
DUCHIFAT 1 26 Sep 01:24:04 01:27:08 20° 291° (WNW) 01:30:13 145.980
JAS-2 26 Sep 01:26:45 01:34:16 51° 291° (WNW) 01:41:30 435.910
BUGSAT 1 26 Sep 01:35:01 01:38:41 35° 288° (WNW) 01:42:21 437.445
POPSAT HIP 1 26 Sep 01:37:58 01:39:58 13° 294° (WNW) 01:41:57 437.405
BEESAT 3 26 Sep 01:48:11 01:51:57 49° 303° (WNW) 01:55:47 437.485
ITUPSAT 1 26 Sep 01:50:17 01:54:31 33° 70° (ENE) 01:58:46 437.325
Gurwin Techsat 1B 26 Sep 02:00:23 02:04:56 28° 96° (E) 02:09:29 435.225
YUBILEINY 26 Sep 02:02:41 02:09:25 25° 82° (E) 02:16:06 435.215
SWISSCUBE 26 Sep 02:04:09 02:08:45 53° 73° (ENE) 02:13:24 437.505
BEESAT 26 Sep 02:17:17 02:21:59 66° 74° (ENE) 02:26:43 436.000
MOZHAYETS 4 26 Sep 02:28:21 02:30:20 13° 65° (ENE) 02:32:21
TISAT 1 26 Sep 02:38:34 02:40:00 11° 268° (W) 02:41:25 437.305
BEESAT 2 26 Sep 02:39:39 02:43:05 28° 306° (NW) 02:46:35 435.950
ISS 26 Sep 02:41:29 02:43:40 16° 27° (NNE) 02:45:51 145.825
Oscar 19 26 Sep 02:59:13 03:03:51 35° 290° (WNW) 03:08:27 437.125/150
Cosmos 2491 26 Sep 03:00:07 03:08:50 67° 268° (W) 03:17:31 435.465 / 435.565
AIST 2 26 Sep 03:07:08 03:09:34 15° 109° (ESE) 03:12:01 435.215
KKS-1 26 Sep 03:07:31 03:10:57 22° 68° (ENE) 03:14:23 437.445
AO-7 26 Sep 03:09:14 03:15:20 22° 94° (E) 03:21:24 29.400- 29.500
SRMSAT 26 Sep 03:09:15 03:11:29 12° 190° (S) 03:13:43 437.500
RS-15 26 Sep 03:19:43 03:29:38 27° 33° (NNE) 03:39:26 29.354- 29.394
ITUPSAT 1 26 Sep 03:28:40 03:32:22 22° 265° (W) 03:36:05 437.325
Gurwin Techsat 1B 26 Sep 03:40:10 03:44:49 32° 291° (WNW) 03:49:28 435.225
PCSat 26 Sep 03:43:26 03:47:17 20° 105° (ESE) 03:51:10 145.827
CUBESAT XI-V 26 Sep 03:43:44 03:44:25 10° 63° (ENE) 03:45:07 437.345
SWISSCUBE 26 Sep 03:44:28 03:46:50 14° 268° (W) 03:49:11 437.505
STARS 26 Sep 03:46:38 03:50:21 28° 70° (ENE) 03:54:05 437.465
ITAMSAT 1 26 Sep 03:47:10 03:52:25 84° 103° (ESE) 03:57:39 435.822/435.867
YUBILEINY 26 Sep 03:56:47 04:05:28 62° 280° (W) 04:14:09 435.215
BEESAT 26 Sep 03:59:05 04:00:09 11° 269° (W) 04:01:15 436.000
MOZHAYETS 4 26 Sep 04:02:29 04:06:58 57° 260° (W) 04:11:29
Cosmos 2504 26 Sep 04:13:11 04:20:39 70° 94° (E) 04:27:48 435.465 / 435.565
ISS 26 Sep 04:17:10 04:20:27 65° 223° (SW) 04:23:42 145.825
KKS-1 26 Sep 04:43:25 04:47:19 30° 263° (W) 04:51:14 437.445
AIST 2 26 Sep 04:43:49 04:47:41 39° 304° (NW) 04:51:35 435.215
AO-7 26 Sep 05:00:26 05:08:40 71° 291° (WNW) 05:16:53 29.400- 29.500
CUSAT 1 26 Sep 05:04:57 05:10:09 19° 63° (ENE) 05:14:53 437.405
AIST 1 26 Sep 05:07:13 05:11:19 40° 92° (E) 05:15:26
BRITE-PL 26 Sep 05:15:01 05:17:53 16° 90° (E) 05:20:37 437.365/2234.400
CUBESAT XI-V 26 Sep 05:16:26 05:21:07 76° 259° (WSW) 05:25:50 437.345
STARS 26 Sep 05:23:11 05:26:39 23° 264° (W) 05:30:07 437.465
PCSat 26 Sep 05:25:03 05:30:16 48° 301° (WNW) 05:35:32 145.827
ITAMSAT 1 26 Sep 05:29:34 05:31:08 11° 299° (WNW) 05:32:40 435.822/435.867
RS-15 26 Sep 05:32:01 05:44:30 79° 59° (ENE) 05:56:34 29.354- 29.394
HORYU 2 26 Sep 05:56:27 06:00:55 87° 103° (ESE) 06:05:23 437.375
NOAA 18 26 Sep 05:58:04 06:00:42 14° 92° (E) 06:03:21 137.9125
Cosmos 2504 26 Sep 06:09:45 06:14:35 18° 291° (WNW) 06:19:20 435.465 / 435.565
LilacSat-2 26 Sep 06:13:54 06:16:56 22° 96° (E) 06:19:58 437.200
DANDE 26 Sep 06:14:15 06:21:31 32° 70° (ENE) 06:28:26 436.750
AO-85 26 Sep 06:40:52 06:44:59 75° 59° (ENE) 06:48:51 145.980
CUSAT 1 26 Sep 06:45:24 06:53:11 78° 264° (W) 06:59:39 437.405
AIST 1 26 Sep 06:46:38 06:49:06 15° 287° (WNW) 06:51:33
O/OREOS (USA 219) 26 Sep 06:47:24 06:51:01 24° 102° (ESE) 06:54:41 437.305
GOMX 1 26 Sep 06:51:16 06:55:42 75° 101° (ESE) 06:59:53 467.674
BRITE-PL 26 Sep 06:52:05 06:56:39 42° 288° (WNW) 07:00:53 437.365/2234.400
AO-7 26 Sep 06:56:05 06:59:58 14° 310° (NW) 07:03:51 29.400- 29.500
NOAA 15 26 Sep 07:01:43 07:07:03 87° 284° (WNW) 07:12:20 137.62
STRAND 1 26 Sep 07:08:53 07:13:57 75° 75° (ENE) 07:19:04 437.568
Cubesat XI-IV 26 Sep 07:10:47 07:16:09 89° 291° (WNW) 07:21:31 437.490
CUTE-I 26 Sep 07:11:35 07:16:57 87° 283° (WNW) 07:22:19 437.470
CINEMA 3 26 Sep 07:13:46 07:14:49 11° 92° (E) 07:15:53 145.822/145.860
DOVE 4 26 Sep 07:22:27 07:26:38 66° 100° (E) 07:30:44 437.250
Cosmos 2499 26 Sep 07:34:13 07:37:28 14° 81° (E) 07:40:40 435.465 / 435.565
PRISM 26 Sep 07:36:18 07:37:21 11° 64° (ENE) 07:38:25 437.425
NOAA 18 26 Sep 07:36:21 07:41:47 67° 286° (WNW) 07:47:12 137.9125
RS-15 26 Sep 07:46:15 07:55:37 27° 259° (W) 08:04:50 29.354- 29.394
LilacSat-2 26 Sep 07:48:10 07:51:07 21° 290° (WNW) 07:54:03 437.200
DANDE 26 Sep 07:56:30 08:04:38 56° 268° (W) 08:12:12 436.750
CUTE 1.7 + AOD 2 26 Sep 08:01:15 08:05:03 30° 97° (E) 08:08:51 437.475
CANX-2 26 Sep 08:01:58 08:05:57 36° 98° (E) 08:09:55 2200.000
HO-68 26 Sep 08:03:44 08:10:25 41° 99° (E) 08:17:02 435.675
SEEDS 26 Sep 08:06:32 08:10:00 24° 95° (E) 08:13:26 437.485
GONETS M04 26 Sep 08:19:01 08:27:16 47° 88° (E) 08:35:34
O/OREOS (USA 219) 26 Sep 08:26:19 08:30:15 28° 298° (WNW) 08:34:14 437.305
CUSAT 1 26 Sep 08:31:10 08:33:34 12° 283° (WNW) 08:35:52 437.405
CUBEBUG 2 26 Sep 08:31:56 08:35:26 24° 96° (E) 08:39:01 437.445
AAUSAT CUBESAT 2 26 Sep 08:34:33 08:38:05 26° 96° (E) 08:41:35 437.432
NOAA 15 26 Sep 08:45:28 08:45:58 10° 300° (WNW) 08:46:27 137.62
FUNcube-1 26 Sep 08:47:51 08:50:01 13° 93° (E) 08:52:12 145.935
CINEMA 3 26 Sep 08:48:11 08:52:13 50° 285° (WNW) 08:56:20 145.822/145.860
STRAND 1 26 Sep 08:52:38 08:53:36 10° 270° (W) 08:54:35 437.568
UWE-3 26 Sep 08:53:51 08:57:35 28° 97° (E) 09:01:23 435.000/436.395/437.385
Cubesat XI-IV 26 Sep 08:54:21 08:55:24 11° 300° (WNW) 08:56:27 437.490
CUTE-I 26 Sep 08:55:32 08:56:09 10° 300° (WNW) 08:56:46 437.470
UNISAT 6 26 Sep 09:03:32 09:05:23 13° 66° (ENE) 09:07:16 437.425
PRISM 26 Sep 09:08:02 09:12:07 57° 259° (W) 09:16:16 437.425
COMPASS 1 26 Sep 09:16:26 09:20:39 73° 284° (WNW) 09:24:50 437.405
Cosmos 2499 26 Sep 09:22:20 09:29:36 81° 277° (W) 09:36:41 435.465 / 435.565
ZACube-1 26 Sep 09:27:09 09:31:16 42° 99° (E) 09:35:28 437.345
Oscar 11 26 Sep 09:28:48 09:32:58 42° 99° (E) 09:37:05 145.826/435.025
ANTELSAT 26 Sep 09:36:53 09:40:37 30° 71° (ENE) 09:44:21 437.575/2403.000
CUTE 1.7 + AOD 2 26 Sep 09:37:32 09:40:41 20° 291° (WNW) 09:43:49 437.475
CANX-2 26 Sep 09:38:41 09:41:30 17° 292° (WNW) 09:44:18 2200.000
SEEDS 26 Sep 09:42:06 09:45:35 25° 290° (WNW) 09:49:03 437.485
HO-68 26 Sep 09:51:38 09:57:57 35° 295° (WNW) 10:04:15 435.675
TIGRISAT 26 Sep 09:57:29 10:01:37 49° 74° (ENE) 10:05:43 435.000
HUMSAT D 26 Sep 10:04:15 10:07:24 20° 95° (E) 10:10:34 437.325/437.525
BEESAT 3 26 Sep 10:07:25 10:11:11 39° 56° (NE) 10:14:54 437.485
CUBEBUG 2 26 Sep 10:08:29 10:11:58 25° 289° (WNW) 10:15:32 437.445
DELFI C3 26 Sep 10:09:50 10:13:44 48° 99° (E) 10:17:37 145.870
AAUSAT CUBESAT 2 26 Sep 10:10:09 10:13:25 22° 290° (WNW) 10:16:39 437.432
GONETS M04 26 Sep 10:16:19 10:24:10 35° 287° (WNW) 10:32:07
FUNcube-1 26 Sep 10:22:18 10:26:26 45° 286° (WNW) 10:30:37 145.935
UWE-3 26 Sep 10:30:34 10:33:53 22° 290° (WNW) 10:37:15 435.000/436.395/437.385
UNISAT 6 26 Sep 10:37:31 10:41:40 49° 260° (W) 10:45:49 437.425
QB50P1 26 Sep 10:38:13 10:41:09 19° 68° (ENE) 10:44:04 145.935-145.965
DUCHIFAT 1 26 Sep 10:38:27 10:41:02 16° 67° (ENE) 10:43:37 145.980
POPSAT HIP 1 26 Sep 10:50:57 10:54:25 25° 70° (ENE) 10:57:52 437.405
BEESAT 2 26 Sep 10:59:05 11:03:06 74° 60° (ENE) 11:07:06 435.950
PHONESAT 2.4 26 Sep 11:00:00 11:02:44 36° 152° (SSE) 11:05:28 2401.200-2431.200
ZACube-1 26 Sep 11:04:41 11:07:12 15° 293° (WNW) 11:09:44 437.345
Oscar 11 26 Sep 11:06:10 11:08:42 15° 293° (WNW) 11:11:14 145.826/435.025
NANOSAT C BR1 26 Sep 11:08:01 11:11:54 38° 73° (ENE) 11:15:47 145.865
ANTELSAT 26 Sep 11:14:16 11:17:21 19° 265° (W) 11:20:26 437.575/2403.000
Cosmos 2499 26 Sep 11:22:15 11:23:49 11° 296° (WNW) 11:25:22 435.465 / 435.565
QB50P2 26 Sep 11:29:24 11:33:37 82° 76° (ENE) 11:37:50 145.880/145.840
POLYITAN 1 26 Sep 11:31:39 11:35:51 82° 76° (ENE) 11:40:03 437.675
JAS-2 26 Sep 11:35:08 11:41:18 62° 71° (ENE) 11:48:19 435.910
TIGRISAT 26 Sep 11:37:06 11:38:33 11° 268° (W) 11:40:01 435.000
HUMSAT D 26 Sep 11:39:18 11:43:00 29° 289° (WNW) 11:46:43 437.325/437.525
BEESAT 3 26 Sep 11:46:14 11:48:28 15° 251° (WSW) 11:50:41 437.485
DELFI C3 26 Sep 11:46:45 11:48:06 11° 294° (WNW) 11:49:28 145.870
ESTCUBE 1 26 Sep 11:51:17 11:55:41 49° 100° (E) 12:00:03 437.505/2401.250
DX 1 26 Sep 11:57:00 11:59:33 15° 94° (E) 12:02:06 434.975-435.025
VELOX 1 26 Sep 11:58:23 12:02:06 26° 96° (E) 12:05:48 145.980
CUBEBUG 1 26 Sep 12:06:43 12:10:53 44° 99° (E) 12:15:00 437.445
50 SAT 26 Sep 12:09:58 12:13:20 33° 98° (E) 12:16:39 437.505
DUCHIFAT 1 26 Sep 12:12:32 12:16:24 36° 262° (W) 12:20:17 145.980
QB50P1 26 Sep 12:12:55 12:16:40 31° 263° (W) 12:20:26 145.935-145.965
BUGSAT 1 26 Sep 12:21:33 12:25:41 75° 258° (WSW) 12:29:46 437.445
POPSAT HIP 1 26 Sep 12:26:47 12:30:07 23° 264° (W) 12:33:27 437.405
PCSat 26 Sep 12:34:15 12:36:16 12° 44° (NE) 12:38:16 145.827
Oscar 19 26 Sep 12:34:43 12:39:08 29° 68° (ENE) 12:43:33 437.125/150
PHONESAT 2.4 26 Sep 12:35:57 12:38:49 49° 348° (NNW) 12:41:43 2401.200-2431.200
AUBIESAT-1 26 Sep 12:36:17 12:39:10 27° 103° (ESE) 12:42:03 437.475
NANOSAT C BR1 26 Sep 12:45:22 12:47:45 15° 267° (W) 12:50:08 145.865
AISAT 26 Sep 12:50:25 12:54:48 70° 285° (WNW) 12:59:08 437.250
SPROUT 26 Sep 12:55:22 12:59:37 68° 101° (ESE) 13:03:50 437.525
UKube-1 26 Sep 13:06:07 13:10:27 77° 103° (ESE) 13:14:44 .
AIST 2 26 Sep 13:07:00 13:11:10 59° 59° (ENE) 13:15:17 435.215
M-CUBED/EXP-1 PRIME 26 Sep 13:11:57 13:15:11 61° 289° (WNW) 13:18:24 437.505
Gurwin Techsat 1B 26 Sep 13:18:59 13:23:47 36° 70° (ENE) 13:28:36 435.225
JAS-2 26 Sep 13:22:29 13:26:56 20° 271° (W) 13:31:47 435.910
ITAMSAT 1 26 Sep 13:27:38 13:29:07 11° 61° (ENE) 13:30:35 435.822/435.867
ESTCUBE 1 26 Sep 13:29:34 13:32:02 15° 295° (WNW) 13:34:30 437.505/2401.250
DX 1 26 Sep 13:31:50 13:35:53 39° 288° (WNW) 13:39:54 434.975-435.025
VELOX 1 26 Sep 13:34:55 13:38:26 24° 291° (WNW) 13:41:55 145.980
CUBEBUG 1 26 Sep 13:44:24 13:46:45 14° 294° (WNW) 13:49:05 437.445
50 SAT 26 Sep 13:44:42 13:46:30 13° 293° (WNW) 13:48:16 437.505
Cosmos 2491 26 Sep 14:02:49 14:10:04 30° 84° (E) 14:17:20 435.465 / 435.565
AO-7 26 Sep 14:05:54 14:12:29 27° 58° (ENE) 14:19:03 29.400- 29.500
SWISSCUBE 26 Sep 14:07:55 14:10:58 17° 94° (E) 14:13:59 437.505
Cosmos 2504 26 Sep 14:08:50 14:14:03 20° 70° (ENE) 14:19:26 435.465 / 435.565
YUBILEINY 26 Sep 14:09:58 14:18:34 60° 80° (E) 14:27:05 435.215
AUBIESAT-1 26 Sep 14:11:53 14:13:24 13° 297° (WNW) 14:14:56 437.475
PHONESAT 2.4 26 Sep 14:12:28 14:15:15 37° 5° (N) 14:18:03 2401.200-2431.200
Oscar 19 26 Sep 14:13:47 14:18:20 30° 263° (W) 14:22:54 437.125/150
PCSat 26 Sep 14:15:05 14:20:32 79° 64° (ENE) 14:25:56 145.827
BEESAT 26 Sep 14:20:39 14:24:12 20° 95° (E) 14:27:43 436.000
TISAT 1 26 Sep 14:21:38 14:25:45 63° 285° (WNW) 14:29:52 437.305
AIST 2 26 Sep 14:48:05 14:49:06 11° 253° (WSW) 14:50:07 435.215
Gurwin Techsat 1B 26 Sep 14:59:27 15:03:45 25° 265° (W) 15:08:04 435.225
ITAMSAT 1 26 Sep 15:02:39 15:07:49 83° 257° (WSW) 15:13:01 435.822/435.867
SO-50 26 Sep 15:11:09 15:15:50 52° 116° (ESE) 15:20:31 436.795
ITUPSAT 1 26 Sep 15:30:12 15:35:00 73° 286° (WNW) 15:39:48 437.325
SWISSCUBE 26 Sep 15:44:21 15:48:55 45° 288° (WNW) 15:53:29 437.505
PHONESAT 2.4 26 Sep 15:48:35 15:51:34 87° 205° (SSW) 15:54:32 2401.200-2431.200
AO-7 26 Sep 15:56:21 16:04:36 65° 256° (WSW) 16:12:52 29.400- 29.500
BEESAT 26 Sep 15:57:40 16:02:02 36° 289° (WNW) 16:06:25 436.000
Cosmos 2491 26 Sep 15:57:53 16:06:22 53° 282° (WNW) 16:14:59 435.465 / 435.565
MOZHAYETS 4 26 Sep 15:59:54 16:04:16 39° 98° (E) 16:08:35
Cosmos 2504 26 Sep 16:00:33 16:07:56 69° 266° (W) 16:15:50 435.465 / 435.565
PCSat 26 Sep 16:01:30 16:03:10 11° 258° (WSW) 16:04:49 145.827
YUBILEINY 26 Sep 16:07:56 16:14:39 26° 277° (W) 16:21:23 435.215
BRITE-PL 26 Sep 16:22:10 16:26:07 20° 66° (ENE) 16:30:02 437.365/2234.400
KKS-1 26 Sep 16:36:02 16:40:26 60° 102° (ESE) 16:44:47 437.445
NOAA 15 26 Sep 16:42:47 16:45:23 14° 62° (ENE) 16:48:00 137.62
HORYU 2 26 Sep 16:51:49 16:56:07 58° 75° (ENE) 17:00:28 437.375
SO-50 26 Sep 16:53:08 16:56:36 19° 312° (NW) 17:00:03 436.795
Cubesat XI-IV 26 Sep 16:53:37 16:56:14 14° 62° (ENE) 16:58:51 437.490
AIST 1 26 Sep 16:53:52 16:58:09 73° 265° (W) 17:02:23
CUTE-I 26 Sep 16:54:09 16:56:51 14° 62° (ENE) 16:59:34 437.470
O/OREOS (USA 219) 26 Sep 16:59:07 17:03:14 31° 63° (ENE) 17:07:18 437.305
STARS 26 Sep 17:13:45 17:18:07 76° 102° (ESE) 17:22:28 437.465
CUBESAT XI-V 26 Sep 17:15:47 17:19:59 32° 97° (E) 17:24:08 437.345
NOAA 18 26 Sep 17:21:20 17:25:28 22° 65° (ENE) 17:29:35 137.9125
PHONESAT 2.4 26 Sep 17:25:35 17:27:24 15° 214° (SW) 17:29:12 2401.200-2431.200
MOZHAYETS 4 26 Sep 17:37:54 17:41:06 19° 293° (WNW) 17:44:17
RS-15 26 Sep 17:49:57 17:52:30 11° 94° (E) 17:55:06 29.354- 29.394
GOMX 1 26 Sep 17:55:27 18:00:50 64° 75° (ENE) 18:06:01 467.674
BRITE-PL 26 Sep 17:58:31 18:04:05 56° 261° (W) 18:09:39 437.365/2234.400
CUSAT 1 26 Sep 18:03:41 18:07:29 17° 80° (E) 18:11:45 437.405
KKS-1 26 Sep 18:14:59 18:16:26 11° 296° (WNW) 18:17:54 437.445
